Погода в Логроньо

Испания     42°28′09″N   2°26′13″W
темп.,
°C
ветер,
м/с
пор.,
м/с
влажн.,
%
обл.,
%
осадки,
мм/ч
давл.,
гПа
погр.,
м
18 апреля, вс
вс1823:00+2з33795 0.0 102656
02:00+3з3573100 0.0 1026181
05:00+3з3572100 0.0 1025272
08:00+3з347592 0.0 1024153
11:00+8зсз336110 0.0 1024934
14:00+12сз44501 0.0 10211256
17:00+15сз34434 0.0 10191433
20:00+13ссз34561 0.0 101987
19 апреля, пн
пн1923:00+7зсз116955 0.0 102111
02:00+6зсз22747 0.0 102114
05:00+5з2274100 0.0 102016
08:00+5зсз1173100 0.0 101913
11:00+11зсз225595 0.0 1018393
14:00+17сз2439100 0.0 10161186
17:00+17с4438100 0.0 10141668
20:00+13зсз3551100 0.0 1015126
20 апреля, вт
вт2023:00+10зсз2256100 0.1 101729
02:00+8сз2257100 0.1 101740
05:00+8зсз2256100 0.0 101624
08:00+8зсз2259100 0.0 101653
11:00+10сз1259100 0.0 1016374
14:00+13с345764 0.0 10151301
17:00+14с455470 0.0 10141578
20:00+12с466522 0.1 1015459
21 апреля, ср
ср2123:00+8зсз117711 0.0 101716
02:00+6зсз22865 0.0 101713
05:00+5з22915 0.0 101721
08:00+5зсз11905 0.0 101717
11:00+12с11645 0.0 1017536
14:00+16вюв224829 0.0 10151427
17:00+17вюв434565 0.1 10131735
20:00+15в345699 0.1 1013108
22 апреля, чт
чт2223:00+10сз117277 0.0 101925
02:00+7с118484 0.0 102011
05:00+7зсз118230 0.0 101927
08:00+7в128778 0.3 102090
11:00+12вюв357523 0.0 1020621
14:00+16юв565379 0.1 10181545
17:00+18в454789 0.0 10171920
20:00+15юв226375 0.0 101770